,,Stat6,,Stat2,,Stat8,,Stat9,,Stat10,,Wind1,,Wind1,
time,status,PA1M_AVG,status,PR1M_SUM,status,RH1M_AVG,status,SR1M_AVG,status,TA1M_AVG,status,W1dAve1m,status,W1sAve1m,
2004-03-25, 00:00:00,VALID,918.253,VALID,0,VALID,93.0001,VALID,0.0339617,VALID,19.7236,VALID,318,VALID,0,
2004-03-25, 00:01:00,VALID,918.25,VALID,0,VALID,93.0395,VALID,-0.0509425,VALID,19.7057,VALID,318,VALID,0,
2004-03-25, 00:02:00,VALID,918.247,VALID,0,VALID,93.042,VALID,-0.0849042,VALID,19.6674,VALID,318,VALID,0,
2004-03-25, 00:03:00,VALID,918.232,VALID,0,VALID,93.2404,VALID,-0.0509425,VALID,19.5929,VALID,23,VALID,0.439986,
2004-03-25, 00:04:00,VALID,918.214,VALID,0,VALID,93.5609,VALID,-0.0509425,VALID,19.5055,VALID,118,VALID,0.605114,
2004-03-25, 00:05:00,VALID,918.197,VALID,0,VALID,93.763,VALID,-0.0849042,VALID,19.4282,VALID,126,VALID,0.55971,
2004-03-25, 00:06:00,VALID,918.189,VALID,0,VALID,93.8915,VALID,-0.101885,VALID,19.3507,VALID,126,VALID,0.375558,
2004-03-25, 00:07:00,VALID,918.164,VALID,0,VALID,94.5031,VALID,-0.0849042,VALID,19.2864,VALID,125,VALID,0.621271,
2004-03-25, 00:08:00,VALID,918.148,VALID,0,VALID,95.0982,VALID,-0.0679233,VALID,19.2472,VALID,142,VALID,0.829033,
2004-03-25, 00:09:00,VALID,918.144,VALID,0,VALID,95.5713,VALID,-0.101885,VALID,19.2248,VALID,133,VALID,0.818318,
2004-03-25, 00:10:00,VALID,918.138,VALID,0,VALID,95.7874,VALID,-0.0849042,VALID,19.2216,VALID,134,VALID,0.835547,
2004-03-25, 00:11:00,VALID,918.122,VALID,0,VALID,95.7798,VALID,-0.0339617,VALID,19.2181,VALID,136,VALID,0.733041,
2004-03-25, 00:12:00,VALID,918.104,VALID,0,VALID,95.603,VALID,-0.0849042,VALID,19.1925,VALID,125,VALID,1.00302,
2004-03-25, 00:13:00,VALID,918.087,VALID,0,VALID,95.673,VALID,0.0169808,VALID,19.1653,VALID,132,VALID,0.962713,
2004-03-25, 00:14:00,VALID,918.063,VALID,0,VALID,95.9031,VALID,0.0169808,VALID,19.1685,VALID,138,VALID,0.877717,
2004-03-25, 00:15:00,VALID,918.07,VALID,0,VALID,95.9934,VALID,0.0169808,VALID,19.1782,VALID,137,VALID,0.855469,
2004-03-25, 00:16:00,VALID,918.059,VALID,0,VALID,95.9197,VALID,0,VALID,19.2174,VALID,142,VALID,0.605945,
2004-03-25, 00:17:00,VALID,918.056,VALID,0,VALID,95.9108,VALID,0.0169808,VALID,19.2365,VALID,146,VALID,0.425037,
2004-03-25, 00:18:00,VALID,918.051,VALID,0,VALID,95.6565,VALID,0,VALID,19.2688,VALID,146,VALID,0.172238,
2004-03-25, 00:19:00,VALID,918.036,VALID,0,VALID,95.3284,VALID,-0.0339617,VALID,19.2984,VALID,146,VALID,0.0376953,
2004-03-25, 00:20:00,VALID,918.043,VALID,0,VALID,94.9533,VALID,-0.0339617,VALID,19.282,VALID,146,VALID,0,
2004-03-25, 00:21:00,VALID,918.026,VALID,0,VALID,94.9736,VALID,0,VALID,19.2889,VALID,146,VALID,0,
2004-03-25, 00:22:00,VALID,918.007,VALID,0,VALID,94.8197,VALID,0,VALID,19.2857,VALID,146,VALID,0.115916,
2004-03-25, 00:23:00,VALID,917.973,VALID,0,VALID,94.9164,VALID,0,VALID,19.2691,VALID,146,VALID,0.258903,
2004-03-25, 00:24:00,VALID,917.963,VALID,0,VALID,94.9469,VALID,-0.0169808,VALID,19.273,VALID,146,VALID,0.424964,
2004-03-25, 00:25:00,VALID,917.948,VALID,0,VALID,94.9927,VALID,0,VALID,19.2467,VALID,146,VALID,0.54154,
2004-03-25, 00:26:00,VALID,917.945,VALID,0,VALID,95.1415,VALID,-0.0169808,VALID,19.2139,VALID,146,VALID,0.443051,
2004-03-25, 00:27:00,VALID,917.934,VALID,0,VALID,95.2775,VALID,-0.0169808,VALID,19.208,VALID,146,VALID,0.411086,
2004-03-25, 00:28:00,VALID,917.919,VALID,0,VALID,95.3614,VALID,0.0339617,VALID,19.2082,VALID,146,VALID,0.380996,
2004-03-25, 00:29:00,VALID,917.903,VALID,0,VALID,95.2572,VALID,-0.0169808,VALID,19.2017,VALID,146,VALID,0.499609,
2004-03-25, 00:30:00,VALID,917.893,VALID,0,VALID,95.2534,VALID,-0.0169808,VALID,19.1883,VALID,146,VALID,0.420987,
2004-03-25, 00:31:00,VALID,917.869,VALID,0,VALID,95.2381,VALID,0,VALID,19.1754,VALID,146,VALID,0.364901,
2004-03-25, 00:32:00,VALID,917.847,VALID,0,VALID,95.3589,VALID,0,VALID,19.1598,VALID,146,VALID,0.563453,
2004-03-25, 00:33:00,VALID,917.827,VALID,0,VALID,95.5789,VALID,0,VALID,19.127,VALID,146,VALID,0.506138,
2004-03-25, 00:34:00,VALID,917.827,VALID,0,VALID,95.7429,VALID,0,VALID,19.1044,VALID,142,VALID,0.435369,
2004-03-25, 00:35:00,VALID,917.825,VALID,0,VALID,95.687,VALID,0,VALID,19.0883,VALID,67,VALID,0.493521,
2004-03-25, 00:36:00,VALID,917.827,VALID,0,VALID,95.35,VALID,0,VALID,19.0341,VALID,52,VALID,0.577217,
2004-03-25, 00:37:00,VALID,917.825,VALID,0,VALID,95.3843,VALID,-0.0169808,VALID,18.9499,VALID,52,VALID,0.526989,
2004-03-25, 00:38:00,VALID,917.814,VALID,0,VALID,95.8243,VALID,-0.0169808,VALID,18.8946,VALID,52,VALID,0.400746,
2004-03-25, 00:39:00,VALID,917.799,VALID,0,VALID,96.3864,VALID,-0.0169808,VALID,18.895,VALID,96,VALID,0.470866,
2004-03-25, 00:40:00,VALID,917.781,VALID,0,VALID,96.7271,VALID,-0.0169808,VALID,18.9246,VALID,138,VALID,0.56622,
2004-03-25, 00:41:00,VALID,917.772,VALID,0,VALID,97.0654,VALID,0,VALID,18.9435,VALID,147,VALID,0.636347,
2004-03-25, 00:42:00,VALID,917.757,VALID,0,VALID,97.2968,VALID,0,VALID,18.9916,VALID,147,VALID,0.457889,
2004-03-25, 00:43:00,VALID,917.757,VALID,0,VALID,97.5613,VALID,0,VALID,19.0535,VALID,159,VALID,0.495384,
2004-03-25, 00:44:00,VALID,917.747,VALID,0,VALID,97.7559,VALID,0,VALID,19.0982,VALID,155,VALID,0.252663,
2004-03-25, 00:45:00,VALID,917.739,VALID,0,VALID,97.7762,VALID,-0.0169808,VALID,19.1536,VALID,155,VALID,0.21596,
2004-03-25, 00:46:00,VALID,917.717,VALID,0,VALID,97.6859,VALID,0,VALID,19.169,VALID,155,VALID,0.405273,
2004-03-25, 00:47:00,VALID,917.699,VALID,0,VALID,97.2714,VALID,-0.0169808,VALID,19.1598,VALID,154,VALID,0.428454,
2004-03-25, 00:48:00,VALID,917.687,VALID,0,VALID,96.8505,VALID,-0.0169808,VALID,19.1118,VALID,152,VALID,0.308854,
2004-03-25, 00:49:00,VALID,917.666,VALID,0,VALID,96.9014,VALID,0,VALID,19.0535,VALID,149,VALID,0.562881,
2004-03-25, 00:50:00,VALID,917.662,VALID,0,VALID,97.1595,VALID,0,VALID,19.0368,VALID,145,VALID,0.524826,
2004-03-25, 00:51:00,VALID,917.665,VALID,0,VALID,97.4469,VALID,-0.0169808,VALID,19.0371,VALID,145,VALID,0.515625,
2004-03-25, 00:52:00,VALID,917.66,VALID,0,VALID,97.7101,VALID,0,VALID,19.0597,VALID,144,VALID,0.546697,
2004-03-25, 00:53:00,VALID,917.659,VALID,0,VALID,97.7266,VALID,0,VALID,19.0567,VALID,143,VALID,0.388021,
2004-03-25, 00:54:00,VALID,917.641,VALID,0,VALID,97.5575,VALID,0,VALID,19.0309,VALID,143,VALID,0.00438262,
2004-03-25, 00:55:00,VALID,917.64,VALID,0,VALID,97.3579,VALID,0,VALID,18.9887,VALID,143,VALID,0,
2004-03-25, 00:56:00,VALID,917.622,VALID,0,VALID,97.4774,VALID,-0.0169808,VALID,18.9887,VALID,143,VALID,0,
2004-03-25, 00:57:00,VALID,917.615,VALID,0,VALID,97.7533,VALID,-0.0339617,VALID,19.005,VALID,143,VALID,0,
2004-03-25, 00:58:00,VALID,917.606,VALID,0,VALID,97.7241,VALID,-0.0169808,VALID,19.0147,VALID,143,VALID,0.236555,
2004-03-25, 00:59:00,VALID,917.587,VALID,0,VALID,97.8868,VALID,0,VALID,19.0209,VALID,143,VALID,0.221354,
2004-03-25, 01:00:00,VALID,917.583,VALID,0,VALID,97.9199,VALID,-0.0169808,VALID,19.0403,VALID,143,VALID,0.285792,
2004-03-25, 01:01:00,VALID,917.564,VALID,0,VALID,97.7419,VALID,-0.0339617,VALID,19.0207,VALID,143,VALID,0.150213,
2004-03-25, 01:02:00,VALID,917.546,VALID,0,VALID,97.8067,VALID,0,VALID,19.002,VALID,143,VALID,0,
2004-03-25, 01:03:00,VALID,917.541,VALID,0,VALID,97.5168,VALID,-0.0169808,VALID,18.9628,VALID,143,VALID,0,
2004-03-25, 01:04:00,VALID,917.545,VALID,0,VALID,97.3617,VALID,0,VALID,18.9236,VALID,143,VALID,0,
2004-03-25, 01:05:00,VALID,917.552,VALID,0,VALID,97.3528,VALID,-0.0169808,VALID,18.8853,VALID,143,VALID,0.272711,
2004-03-25, 01:06:00,VALID,917.538,VALID,0,VALID,97.4075,VALID,0,VALID,18.8528,VALID,143,VALID,0.268359,
2004-03-25, 01:07:00,VALID,917.525,VALID,0,VALID,97.6656,VALID,-0.0339617,VALID,18.8337,VALID,143,VALID,0.274132,
2004-03-25, 01:08:00,VALID,917.501,VALID,0,VALID,97.8868,VALID,0,VALID,18.8369,VALID,143,VALID,0.190848,
2004-03-25, 01:09:00,VALID,917.475,VALID,0,VALID,97.9822,VALID,0,VALID,18.8464,VALID,143,VALID,0.188045,
2004-03-25, 01:10:00,VALID,917.431,VALID,0,VALID,98.0216,VALID,0,VALID,18.8531,VALID,143,VALID,0.282012,
2004-03-25, 01:11:00,VALID,917.379,VALID,0,VALID,98.3599,VALID,-0.0169808,VALID,18.9179,VALID,48,VALID,0.456174,
2004-03-25, 01:12:00,VALID,917.335,VALID,0,VALID,98.6473,VALID,0,VALID,18.9827,VALID,27,VALID,0.445858,
2004-03-25, 01:13:00,VALID,917.288,VALID,0,VALID,98.6663,VALID,-0.0509425,VALID,19.011,VALID,27,VALID,0.321915,
2004-03-25, 01:14:00,VALID,917.249,VALID,0,VALID,98.557,VALID,-0.0509425,VALID,19.0276,VALID,27,VALID,0.142027,
2004-03-25, 01:15:00,VALID,917.221,VALID,0,VALID,98.5989,VALID,0,VALID,19.0565,VALID,27,VALID,0.0316134,
2004-03-25, 01:16:00,VALID,917.204,VALID,0,VALID,98.4972,VALID,0,VALID,19.0786,VALID,27,VALID,0,
2004-03-25, 01:17:00,VALID,917.198,VALID,0,VALID,98.3294,VALID,0.0339617,VALID,19.1019,VALID,27,VALID,0,
2004-03-25, 01:18:00,VALID,917.195,VALID,0,VALID,98.1259,VALID,0,VALID,19.1049,VALID,27,VALID,0,
2004-03-25, 01:19:00,VALID,917.187,VALID,0,VALID,97.9085,VALID,0,VALID,19.085,VALID,27,VALID,0.0835193,
2004-03-25, 01:20:00,VALID,917.193,VALID,0,VALID,97.9301,VALID,0.0169808,VALID,19.0984,VALID,27,VALID,0.162972,
2004-03-25, 01:21:00,VALID,917.182,VALID,0,VALID,97.8436,VALID,0,VALID,19.1017,VALID,27,VALID,0.337754,
2004-03-25, 01:22:00,VALID,917.167,VALID,0,VALID,97.5677,VALID,-0.0169808,VALID,19.0788,VALID,27,VALID,0.350174,
2004-03-25, 01:23:00,VALID,917.161,VALID,0,VALID,97.5054,VALID,0,VALID,19.0594,VALID,27,VALID,0.446484,
2004-03-25, 01:24:00,VALID,917.137,VALID,0,VALID,97.6147,VALID,0.0169808,VALID,19.0885,VALID,36,VALID,0.488377,
2004-03-25, 01:25:00,VALID,917.134,VALID,0,VALID,97.3846,VALID,0,VALID,19.0791,VALID,36,VALID,0.3212,
2004-03-25, 01:26:00,VALID,917.139,VALID,0,VALID,96.8797,VALID,0.0169808,VALID,19.0105,VALID,36,VALID,0.32049,
2004-03-25, 01:27:00,VALID,917.143,VALID,0,VALID,96.6292,VALID,-0.0169808,VALID,18.9792,VALID,36,VALID,0.135045,
2004-03-25, 01:28:00,VALID,917.131,VALID,0,VALID,96.6165,VALID,0,VALID,18.9531,VALID,36,VALID,0,
2004-03-25, 01:29:00,VALID,917.12,VALID,0,VALID,96.7831,VALID,0.0169808,VALID,18.9531,VALID,36,VALID,0,
2004-03-25, 01:30:00,VALID,917.095,VALID,0,VALID,96.8861,VALID,0,VALID,18.9564,VALID,36,VALID,0,
2004-03-25, 01:31:00,VALID,917.063,VALID,0,VALID,96.9573,VALID,-0.0339617,VALID,18.9628,VALID,36,VALID,0,
2004-03-25, 01:32:00,VALID,917.056,VALID,0,VALID,97.0183,VALID,0,VALID,18.9628,VALID,36,VALID,0,
2004-03-25, 01:33:00,VALID,917.047,VALID,0,VALID,97.1048,VALID,0,VALID,18.9725,VALID,36,VALID,0,
2004-03-25, 01:34:00,VALID,917.038,VALID,0,VALID,97.0705,VALID,0,VALID,18.9884,VALID,36,VALID,0,
2004-03-25, 01:35:00,VALID,917.023,VALID,0,VALID,97.059,VALID,0,VALID,18.9946,VALID,36,VALID,0,
2004-03-25, 01:36:00,VALID,917.029,VALID,0,VALID,97.0412,VALID,0,VALID,19.0244,VALID,36,VALID,0,
2004-03-25, 01:37:00,VALID,917.022,VALID,0,VALID,97.0247,VALID,0.0169808,VALID,19.0276,VALID,36,VALID,0,
2004-03-25, 01:38:00,VALID,917.014,VALID,0,VALID,96.9929,VALID,0,VALID,19.0249,VALID,36,VALID,0,
2004-03-25, 01:39:00,VALID,917.004,VALID,0,VALID,96.9446,VALID,0,VALID,19.0177,VALID,36,VALID,0.012173,
2004-03-25, 01:40:00,VALID,917.01,VALID,0,VALID,96.9357,VALID,0,VALID,18.9954,VALID,38,VALID,0.367969,
2004-03-25, 01:41:00,VALID,917.006,VALID,0,VALID,97.0705,VALID,0.0169808,VALID,18.9822,VALID,68,VALID,0.379724,
2004-03-25, 01:42:00,VALID,917.004,VALID,0,VALID,97.218,VALID,0,VALID,18.9663,VALID,68,VALID,0.250347,
2004-03-25, 01:43:00,VALID,917.004,VALID,0,VALID,97.4367,VALID,0,VALID,18.943,VALID,68,VALID,0.0555556,
2004-03-25, 01:44:00,VALID,917.008,VALID,0,VALID,97.5702,VALID,0.0169808,VALID,18.9635,VALID,68,VALID,0,
2004-03-25, 01:45:00,VALID,917.008,VALID,0,VALID,97.2421,VALID,0,VALID,18.9472,VALID,68,VALID,0.00967262,
2004-03-25, 01:46:00,VALID,917.006,VALID,0,VALID,96.9141,VALID,0,VALID,18.8853,VALID,68,VALID,0.0712426,
2004-03-25, 01:47:00,VALID,917.009,VALID,0,VALID,96.8073,VALID,-0.0169808,VALID,18.8335,VALID,68,VALID,0.0380208,
2004-03-25, 01:48:00,VALID,917.007,VALID,0,VALID,96.8696,VALID,0,VALID,18.8178,VALID,68,VALID,0.00381541,
2004-03-25, 01:49:00,VALID,917.002,VALID,0,VALID,97.1557,VALID,0,VALID,18.8111,VALID,68,VALID,0,
2004-03-25, 01:50:00,VALID,916.997,VALID,0,VALID,97.3986,VALID,-0.0169808,VALID,18.8307,VALID,68,VALID,0,
2004-03-25, 01:51:00,VALID,916.996,VALID,0,VALID,97.2129,VALID,0,VALID,18.8531,VALID,68,VALID,0,
2004-03-25, 01:52:00,VALID,917.003,VALID,0,VALID,96.8963,VALID,0,VALID,18.86,VALID,68,VALID,0,
2004-03-25, 01:53:00,VALID,917.007,VALID,0,VALID,96.661,VALID,0.0169808,VALID,18.8468,VALID,68,VALID,0,
2004-03-25, 01:54:00,VALID,917.01,VALID,0,VALID,96.469,VALID,0,VALID,18.8404,VALID,68,VALID,0,
2004-03-25, 01:55:00,VALID,917.028,VALID,0,VALID,96.2401,VALID,0,VALID,18.8178,VALID,68,VALID,0,
2004-03-25, 01:56:00,VALID,917.042,VALID,0,VALID,96.0087,VALID,0,VALID,18.7818,VALID,68,VALID,0,
2004-03-25, 01:57:00,VALID,917.046,VALID,0,VALID,96.0176,VALID,0.0169808,VALID,18.779,VALID,68,VALID,0,
2004-03-25, 01:58:00,VALID,917.036,VALID,0,VALID,95.7722,VALID,0,VALID,18.7689,VALID,68,VALID,0,
2004-03-25, 01:59:00,VALID,917.026,VALID,0,VALID,95.4975,VALID,0.0339617,VALID,18.7205,VALID,68,VALID,0.143787,
2004-03-25, 02:00:00,VALID,917.009,VALID,0,VALID,95.4517,VALID,0,VALID,18.6757,VALID,67,VALID,0.191939,
2004-03-25, 02:01:00,VALID,916.995,VALID,0,VALID,95.6933,VALID,-0.0169808,VALID,18.6402,VALID,67,VALID,0.170099,
2004-03-25, 02:02:00,VALID,916.978,VALID,0,VALID,95.5891,VALID,0,VALID,18.5724,VALID,67,VALID,0.25651,
2004-03-25, 02:03:00,VALID,916.956,VALID,0,VALID,95.7404,VALID,0,VALID,18.5275,VALID,67,VALID,0.125,
2004-03-25, 02:04:00,VALID,916.948,VALID,0,VALID,95.9591,VALID,0,VALID,18.4818,VALID,47,VALID,0.315972,
2004-03-25, 02:05:00,VALID,916.916,VALID,0,VALID,96.4983,VALID,0,VALID,18.4887,VALID,18,VALID,0.324695,
2004-03-25, 02:06:00,VALID,916.889,VALID,0,VALID,97.2421,VALID,-0.0339617,VALID,18.5342,VALID,17,VALID,0.421131,
2004-03-25, 02:07:00,VALID,916.873,VALID,0,VALID,97.7775,VALID,-0.0169808,VALID,18.5985,VALID,17,VALID,0.229861,
2004-03-25, 02:08:00,VALID,916.846,VALID,0,VALID,98.103,VALID,0,VALID,18.6628,VALID,17,VALID,0.175114,
2004-03-25, 02:09:00,VALID,916.846,VALID,0,VALID,98.1196,VALID,-0.0169808,VALID,18.7346,VALID,17,VALID,0,
2004-03-25, 02:10:00,VALID,916.834,VALID,0,VALID,97.9288,VALID,0,VALID,18.741,VALID,17,VALID,0,
2004-03-25, 02:11:00,VALID,916.832,VALID,0,VALID,97.7902,VALID,0,VALID,18.7768,VALID,17,VALID,0.191406,
2004-03-25, 02:12:00,VALID,916.824,VALID,0,VALID,97.6224,VALID,0,VALID,18.7857,VALID,13,VALID,0.290206,
2004-03-25, 02:13:00,VALID,916.809,VALID,0,VALID,97.6796,VALID,-0.0339617,VALID,18.8379,VALID,9,VALID,0.0394259,
2004-03-25, 02:14:00,VALID,916.794,VALID,0,VALID,97.5626,VALID,0,VALID,18.8602,VALID,9,VALID,0.0897485,
2004-03-25, 02:15:00,VALID,916.78,VALID,0,VALID,97.3388,VALID,-0.0169808,VALID,18.8863,VALID,9,VALID,0,
2004-03-25, 02:16:00,VALID,916.768,VALID,0,VALID,96.8403,VALID,-0.0339617,VALID,18.8443,VALID,9,VALID,0.101744,
2004-03-25, 02:17:00,VALID,916.761,VALID,0,VALID,95.893,VALID,-0.0509425,VALID,18.7544,VALID,9,VALID,0.0294744,
2004-03-25, 02:18:00,VALID,916.762,VALID,0,VALID,96.4321,VALID,-0.0509425,VALID,18.7281,VALID,11,VALID,0.402166,
2004-03-25, 02:19:00,VALID,916.76,VALID,0,VALID,95.8752,VALID,-0.101885,VALID,18.6702,VALID,21,VALID,0.470465,
2004-03-25, 02:20:00,VALID,916.759,VALID,0,VALID,95.3754,VALID,-0.101885,VALID,18.5471,VALID,23,VALID,0.800951,
2004-03-25, 02:21:00,VALID,916.744,VALID,0,VALID,95.8052,VALID,-0.0509425,VALID,18.4184,VALID,35,VALID,0.919212,
2004-03-25, 02:22:00,VALID,916.732,VALID,0,VALID,96.5072,VALID,-0.0679233,VALID,18.3576,VALID,35,VALID,0.926153,
2004-03-25, 02:23:00,VALID,916.717,VALID,0,VALID,97.4532,VALID,-0.0679233,VALID,18.3576,VALID,31,VALID,0.909268,
2004-03-25, 02:24:00,VALID,916.718,VALID,0,VALID,97.7749,VALID,-0.0509425,VALID,18.3571,VALID,29,VALID,0.840216,
2004-03-25, 02:25:00,VALID,916.71,VALID,0,VALID,97.9021,VALID,-0.0339617,VALID,18.3539,VALID,28,VALID,0.712976,
2004-03-25, 02:26:00,VALID,916.708,VALID,0,VALID,98.1323,VALID,-0.0679233,VALID,18.3638,VALID,28,VALID,0.675604,
2004-03-25, 02:27:00,VALID,916.723,VALID,0,VALID,98.2887,VALID,-0.0849042,VALID,18.4189,VALID,23,VALID,0.725868,
2004-03-25, 02:28:00,VALID,916.718,VALID,0,VALID,98.1094,VALID,-0.0509425,VALID,18.4219,VALID,18,VALID,0.857851,
2004-03-25, 02:29:00,VALID,916.714,VALID,0,VALID,97.8042,VALID,-0.0849042,VALID,18.4606,VALID,13,VALID,0.648242,
2004-03-25, 02:30:00,VALID,916.708,VALID,0,VALID,97.3998,VALID,-0.0849042,VALID,18.4735,VALID,13,VALID,0.46513,
2004-03-25, 02:31:00,VALID,916.7,VALID,0,VALID,97.0756,VALID,-0.0679233,VALID,18.4961,VALID,12,VALID,0.293679,
2004-03-25, 02:32:00,VALID,916.681,VALID,0,VALID,96.8276,VALID,-0.0679233,VALID,18.4996,VALID,6,VALID,0.299479,
2004-03-25, 02:33:00,VALID,916.667,VALID,0,VALID,96.703,VALID,-0.0679233,VALID,18.5028,VALID,6,VALID,0.36319,
2004-03-25, 02:34:00,VALID,916.661,VALID,0,VALID,96.5173,VALID,-0.0679233,VALID,18.5155,VALID,4,VALID,0.311612,
2004-03-25, 02:35:00,VALID,916.651,VALID,0,VALID,96.2986,VALID,-0.0679233,VALID,18.5224,VALID,4,VALID,0,
2004-03-25, 02:36:00,VALID,916.641,VALID,0,VALID,96.0799,VALID,-0.0339617,VALID,18.5185,VALID,4,VALID,0,
2004-03-25, 02:37:00,VALID,916.632,VALID,0,VALID,95.8853,VALID,-0.0509425,VALID,18.5026,VALID,4,VALID,0.000887784,
2004-03-25, 02:38:00,VALID,916.619,VALID,0,VALID,95.8357,VALID,-0.0509425,VALID,18.4996,VALID,4,VALID,0,
2004-03-25, 02:39:00,VALID,916.617,VALID,0,VALID,95.7823,VALID,-0.0169808,VALID,18.4904,VALID,4,VALID,0,
2004-03-25, 02:40:00,VALID,916.605,VALID,0,VALID,95.659,VALID,-0.0679233,VALID,18.4606,VALID,4,VALID,0.0316051,
2004-03-25, 02:41:00,VALID,916.601,VALID,0,VALID,95.9222,VALID,-0.0679233,VALID,18.4673,VALID,4,VALID,0,
2004-03-25, 02:42:00,VALID,916.591,VALID,0,VALID,96.0367,VALID,-0.0339617,VALID,18.4867,VALID,4,VALID,0,
2004-03-25, 02:43:00,VALID,916.569,VALID,0,VALID,95.8129,VALID,-0.0679233,VALID,18.477,VALID,4,VALID,0,
2004-03-25, 02:44:00,VALID,916.569,VALID,0,VALID,95.603,VALID,-0.0849042,VALID,18.438,VALID,4,VALID,0,
2004-03-25, 02:45:00,VALID,916.561,VALID,0,VALID,95.6577,VALID,-0.0679233,VALID,18.4486,VALID,4,VALID,0,
2004-03-25, 02:46:00,VALID,916.553,VALID,0,VALID,95.4517,VALID,-0.0679233,VALID,18.4062,VALID,4,VALID,0.0692472,
2004-03-25, 02:47:00,VALID,916.532,VALID,0,VALID,95.2457,VALID,-0.101885,VALID,18.3156,VALID,4,VALID,0.0828887,
2004-03-25, 02:48:00,VALID,916.512,VALID,0,VALID,95.9502,VALID,-0.0339617,VALID,18.2928,VALID,4,VALID,0.344131,
2004-03-25, 02:49:00,VALID,916.492,VALID,0,VALID,96.6305,VALID,-0.0679233,VALID,18.3128,VALID,4,VALID,0.196911,
2004-03-25, 02:50:00,VALID,916.477,VALID,0,VALID,96.9306,VALID,-0.0849042,VALID,18.3227,VALID,4,VALID,0.193824,
2004-03-25, 02:51:00,VALID,916.448,VALID,0,VALID,97.0183,VALID,-0.0679233,VALID,18.3414,VALID,9,VALID,0.377362,
2004-03-25, 02:52:00,VALID,916.451,VALID,0,VALID,96.895,VALID,-0.0679233,VALID,18.364,VALID,51,VALID,0.448475,
2004-03-25, 02:53:00,VALID,916.453,VALID,0,VALID,96.5529,VALID,-0.0849042,VALID,18.3742,VALID,51,VALID,0.456499,
2004-03-25, 02:54:00,VALID,916.447,VALID,0,VALID,96.1651,VALID,-0.0509425,VALID,18.3548,VALID,51,VALID,0.446733,
2004-03-25, 02:55:00,VALID,916.454,VALID,0,VALID,95.9578,VALID,-0.0679233,VALID,18.3322,VALID,51,VALID,0.356597,
2004-03-25, 02:56:00,VALID,916.447,VALID,0,VALID,95.4059,VALID,-0.0509425,VALID,18.2676,VALID,51,VALID,0.256597,
2004-03-25, 02:57:00,VALID,916.441,VALID,0,VALID,95.1593,VALID,-0.0509425,VALID,18.1869,VALID,51,VALID,0.479936,
2004-03-25, 02:58:00,VALID,916.436,VALID,0,VALID,95.8764,VALID,-0.101885,VALID,18.1673,VALID,51,VALID,0.593378,
2004-03-25, 02:59:00,VALID,916.432,VALID,0,VALID,96.4258,VALID,-0.0679233,VALID,18.1772,VALID,51,VALID,0.503729,
2004-03-25, 03:00:00,VALID,916.426,VALID,0,VALID,96.9471,VALID,-0.0679233,VALID,18.2252,VALID,51,VALID,0.577083,
2004-03-25, 03:01:00,VALID,916.422,VALID,0,VALID,96.8848,VALID,-0.0509425,VALID,18.3382,VALID,51,VALID,0.648047,
2004-03-25, 03:02:00,VALID,916.415,VALID,0,VALID,96.2923,VALID,0,VALID,18.432,VALID,51,VALID,0.59266,
2004-03-25, 03:03:00,VALID,916.408,VALID,0,VALID,95.7645,VALID,0,VALID,18.5192,VALID,51,VALID,0.495916,
2004-03-25, 03:04:00,VALID,916.399,VALID,0,VALID,95.336,VALID,0,VALID,18.5999,VALID,51,VALID,0.379724,
2004-03-25, 03:05:00,VALID,916.396,VALID,0,VALID,94.9583,VALID,0,VALID,18.6416,VALID,51,VALID,0.184956,
2004-03-25, 03:06:00,VALID,916.389,VALID,0,VALID,94.6951,VALID,-0.0339617,VALID,18.6546,VALID,51,VALID,0.167783,
2004-03-25, 03:07:00,VALID,916.381,VALID,0,VALID,94.6811,VALID,0,VALID,18.6354,VALID,51,VALID,0.145647,
2004-03-25, 03:08:00,VALID,916.385,VALID,0,VALID,94.8592,VALID,-0.0509425,VALID,18.5997,VALID,51,VALID,0.164663,
2004-03-25, 03:09:00,VALID,916.384,VALID,0,VALID,95.1593,VALID,-0.0339617,VALID,18.5771,VALID,51,VALID,0.0771949,
2004-03-25, 03:10:00,VALID,916.381,VALID,0,VALID,95.411,VALID,-0.0169808,VALID,18.5448,VALID,51,VALID,0.0589489,
2004-03-25, 03:11:00,VALID,916.382,VALID,0,VALID,95.5293,VALID,-0.0169808,VALID,18.5319,VALID,51,VALID,0.0065407,
2004-03-25, 03:12:00,VALID,916.391,VALID,0,VALID,95.4924,VALID,0,VALID,18.5254,VALID,51,VALID,0,
2004-03-25, 03:13:00,VALID,916.398,VALID,0,VALID,95.5064,VALID,0,VALID,18.5222,VALID,51,VALID,0,
2004-03-25, 03:14:00,VALID,916.404,VALID,0,VALID,95.5649,VALID,-0.0169808,VALID,18.5187,VALID,51,VALID,0,
2004-03-25, 03:15:00,VALID,916.386,VALID,0,VALID,95.6043,VALID,0,VALID,18.519,VALID,51,VALID,0,
2004-03-25, 03:16:00,VALID,916.389,VALID,0,VALID,95.7289,VALID,0.0169808,VALID,18.5155,VALID,51,VALID,0.0159722,
2004-03-25, 03:17:00,VALID,916.378,VALID,0,VALID,95.7213,VALID,0,VALID,18.5319,VALID,51,VALID,0.305043,
2004-03-25, 03:18:00,VALID,916.382,VALID,0,VALID,95.5471,VALID,-0.0169808,VALID,18.5441,VALID,52,VALID,0.381138,
2004-03-25, 03:19:00,VALID,916.361,VALID,0,VALID,95.3869,VALID,0,VALID,18.5542,VALID,75,VALID,0.564704,
2004-03-25, 03:20:00,VALID,916.346,VALID,0,VALID,95.4085,VALID,-0.0169808,VALID,18.5312,VALID,107,VALID,0.633575,
2004-03-25, 03:21:00,VALID,916.338,VALID,0,VALID,95.5496,VALID,0,VALID,18.5157,VALID,108,VALID,0.455357,
2004-03-25, 03:22:00,VALID,916.331,VALID,0,VALID,95.8421,VALID,0.0169808,VALID,18.4865,VALID,108,VALID,0.292151,
2004-03-25, 03:23:00,VALID,916.326,VALID,0,VALID,96.0888,VALID,0,VALID,18.5003,VALID,108,VALID,0.0294331,
2004-03-25, 03:24:00,VALID,916.315,VALID,0,VALID,96.2668,VALID,0,VALID,18.4897,VALID,108,VALID,0,
2004-03-25, 03:25:00,VALID,916.311,VALID,0,VALID,96.3698,VALID,-0.0169808,VALID,18.5123,VALID,108,VALID,0,
2004-03-25, 03:26:00,VALID,916.319,VALID,0,VALID,96.3927,VALID,0,VALID,18.5187,VALID,108,VALID,0,
2004-03-25, 03:27:00,VALID,916.315,VALID,0,VALID,96.5135,VALID,0,VALID,18.5349,VALID,108,VALID,0,
2004-03-25, 03:28:00,VALID,916.319,VALID,0,VALID,96.6534,VALID,0,VALID,18.548,VALID,108,VALID,0,
2004-03-25, 03:29:00,VALID,916.304,VALID,0,VALID,96.5618,VALID,-0.0339617,VALID,18.5669,VALID,108,VALID,0,
2004-03-25, 03:30:00,VALID,916.303,VALID,0,VALID,96.4881,VALID,0.0169808,VALID,18.6059,VALID,108,VALID,0,
2004-03-25, 03:31:00,VALID,916.292,VALID,0,VALID,96.4983,VALID,0,VALID,18.6317,VALID,108,VALID,0,
2004-03-25, 03:32:00,VALID,916.283,VALID,0,VALID,96.3495,VALID,-0.0169808,VALID,18.6509,VALID,108,VALID,0,
2004-03-25, 03:33:00,VALID,916.27,VALID,0,VALID,96.0875,VALID,0,VALID,18.6801,VALID,108,VALID,0.00745739,
2004-03-25, 03:34:00,VALID,916.259,VALID,0,VALID,95.9133,VALID,0.0169808,VALID,18.6958,VALID,108,VALID,0.319511,
2004-03-25, 03:35:00,VALID,916.25,VALID,0,VALID,95.982,VALID,-0.0509425,VALID,18.7348,VALID,131,VALID,0.660334,
2004-03-25, 03:36:00,VALID,916.25,VALID,0,VALID,96.0417,VALID,0,VALID,18.7415,VALID,160,VALID,0.610137,
2004-03-25, 03:37:00,VALID,916.238,VALID,0,VALID,96.249,VALID,0,VALID,18.735,VALID,159,VALID,0.628711,
2004-03-25, 03:38:00,VALID,916.233,VALID,0,VALID,96.6369,VALID,-0.0169808,VALID,18.742,VALID,158,VALID,0.709794,
2004-03-25, 03:39:00,VALID,916.23,VALID,0,VALID,96.8301,VALID,0,VALID,18.7385,VALID,146,VALID,0.395275,
2004-03-25, 03:40:00,VALID,916.219,VALID,0,VALID,96.9395,VALID,0,VALID,18.712,VALID,146,VALID,0.318452,
2004-03-25, 03:41:00,VALID,916.202,VALID,0,VALID,97.0768,VALID,0,VALID,18.7057,VALID,146,VALID,0.39008,